Skip Page Navigation
NASA JPL Caltech
NASA Logo - Jet Propulsion Laboratory + View the NASA Portal
+ Center for Near-Earth Object Studies
JPL Home Earth Solar System Stars & Galaxies Technology
JPL Solar System Dynamics
BODIES ORBITS EPHEMERIDES TOOLS PHYSICAL DATA DISCOVERY FAQ SITE MAP
IMPORTANT: The SSD Announcement email list is now available. Major changes are coming in the near future, including possible hostname and/or URL changes. To be notified of such changes, subscribe to this email list.

Please visit this page for more details.


JPL Small-Body Database Browser
Search: [ help ]  
97588 (2000 EL33)
Classification: Main-belt Asteroid          SPK-ID: 2097588
Ephemeris | Orbit Diagram | Orbital Elements | Mission Design | Physical Parameters | Discovery Circumstances | Close-Approach Data ]

[ show orbit diagram ]
Orbital Elements at Epoch 2458600.5 (2019-Apr-27.0) TDB
Reference: JPL 17 (heliocentric ecliptic J2000)
 Element Value Uncertainty (1-sigma)   Units 
e .1568641243408819 5.1722e-08  
a 3.150054198303209 2.967e-08 au
q 2.655923704860057 1.6441e-07 au
i 6.202367873035552 5.3304e-06 deg
node 102.9026456635793 5.0767e-05 deg
peri 275.1541823693717 5.3692e-05 deg
M 287.5948427563322 2.0267e-05 deg
tp 2459011.216798745725
(2020-Jun-10.71679875)
0.00011774 TDB
period 2042.0927621339
5.59
2.8851e-05
7.899e-08
d
yr
n .176289738975332 2.4906e-09 deg/d
Q 3.644184691746361 3.4324e-08 au
  Orbit Determination Parameters
   # obs. used (total)      659  
   data-arc span      7446 days (20.39 yr)  
   first obs. used      1998-12-22  
   last obs. used      2019-05-12  
   planetary ephem.      DE431  
   SB-pert. ephem.      SB431-N16  
   condition code      0  
   norm. resid. RMS      .5711  
   source      ORB  
   producer      Otto Matic  
   solution date      2019-May-30 06:29:43  

Additional Information
 Earth MOID = 1.66641 au 
 Jupiter MOID = 1.85232 au 
 T_jup = 3.180 
[ show covariance matrix ]

Ephemeris | Orbit Diagram | Orbital Elements | Mission Design | Physical Parameters | Discovery Circumstances | Close-Approach Data ]

Physical Parameter Table
Parameter Symbol Value Units Sigma Reference Notes
absolute magnitude H 14.4   n/a MPO453425  
diameter diameter 6.766 km 0.334 urn:nasa:pds:neowise_diameters_albedos::2.0[mainbelt] (http://adsabs.harvard.edu/abs/2011ApJ...741...68M)  
geometric albedo albedo 0.081   0.008 urn:nasa:pds:neowise_diameters_albedos::2.0[mainbelt] (http://adsabs.harvard.edu/abs/2011ApJ...741...68M)  

97588 (2000 EL33)          Discovered 2000-Mar-05 by LINEAR at Socorro
Reference: 20050224/Numbers.arcLast Updated: 2005-02-28

[ show close-approach data ]
Alternate Designations
 2000 EL33 = 2001 FB32 
Ephemeris | Orbit Diagram | Orbital Elements | Mission Design | Physical Parameters | Discovery Circumstances | Close-Approach Data ]
ABOUT SSD CREDITS/AWARDS PRIVACY/COPYRIGHT GLOSSARY LINKS
FirstGov 2019-Oct-19 03:26 UT
(server date/time)  
NASA Home Page
Site Manager:   Ryan S. Park
Webmaster  Alan B. Chamberlin